THORAD DELTA 1 DEB

Satellite information

Favourite Embed

Satellite Type and Status

DEBRISIN ORBIT

Key statistics

Satellite THORAD DELTA 1 DEB at a glance.

Uptime

18559

Days in orbit

Revolutions

≈ 12.7

Per day

Orbit

SSO

Sun Synchronous Orbit

Inclination

101.6

Latest

Satellite identification and parameters

Extended collection of information and parameters for THORAD DELTA 1 DEB.

Object identification

Identified? True

Debris? True

Object name: THORAD DELTA 1 DEB

International designator: 1974-089CK

Object number (NORAD): 8407

Object ID (CCSDS): 8407

Country: UNITED STATES OF AMERICA (US)

Current information (Y/N): Y

RCS size: SMALL

Orbital parameters

Period: 113.656 minutes

Inclination: 101.5586 deg

SMA: 7772.401 km

Apoapsis: 1574.182 km

Periapsis: 1214.349 km

RAAN: 228.0081 deg

Eccentricy: 0.02314816

Argument of periapsis: 355.0122 deg

Mean anomaly: 58.1275 deg

Mean motion: 12.66980683 rev/day

Mean motion (dot): 0.00000176 rev/day2

B* drag term: 0.0010469523 1/REarth

Two-line elements (TLE)

Creation date: Sept. 7, 2025, 3:09 a.m.

Reference frame: TEME

Reference center: EARTH

Epoch: Sept. 6, 2025, 9:21 p.m. UTC

TLE line 0: 0 THORAD DELTA 1 DEB

TLE line 1: 1 08407U 74089CK 25249.89023902 .00000176 00000-0 10470-2 0 9990

TLE line 2: 2 08407 101.5586 228.0081 0231482 355.0122 58.1275 12.66980683349504

Live tracking on map

Real-time ground track for satellite THORAD DELTA 1 DEB.

In-orbit conjunctions

A list of the most updated potential collisions computed for object THORAD DELTA 1 DEB.

Target Orbit TCA Probability of collision Miss distance Type
DELTA 1 R/B(1) LEO 2024-12-18 17:03:22 0.0001241057 502.0 (m) ROCKET BODY

Associated space launch

Meteorological satellite using radiometric imaging

THORAD DELTA 1 DEB was lifted into orbit during the mission ‘Delta 2310 | NOAA 4’, on board a Delta 2310 space rocket.

The launch took place on Nov. 15, 1974, 5:11 p.m. from Space Launch Complex 2W.

For more information about the launch, click the button.

Launch to space Delta 2310 | NOAA 4
Delta 2310 | NOAA 4

Agency: N/A

Status: Launch Successful

Launch date: Nov. 15, 1974, 5:11 p.m. UTC

Rocket: Delta 2310

Launch pad: Space Launch Complex 2W

Location: Vandenberg SFB, CA, USA

...

Latest news about this satellite

There are no fresh news available about this satellite. Check back as we update our databases every day.


Newsletter sign-up

Weekly statistics, charts and insights to help you stay on top of the space industry.